Location: downtown San Diego
(32.7310°N, 117.1990°W)
Time: 00:10:01
(UTC-07:00)

Cosmos 1553 Rocket - Pass Details

Date: 14 June 2018
Orbit: 943 x 1007 km, 82.9° (Epoch: 13 August)

Event Time Altitude Azimuth Distance (km) Brightness Sun altitude
Exits shadow 22:55:31 78° 135° (SE) 971 3.7 -27.7°
Maximum altitude 22:55:50 81° 95° (E) 963 3.8 -27.8°
Drops below altitude 10° 23:01:55 10° 8° (N) 2,665 6.9 -28.4°
Sets 23:04:24 0° 8° (N) 3,612 7.8 -28.6°
